15min,AgWx,evansfrm,411,12NOV2017:00:00:00,27.7,12.88,27.6,27.4,28.9,29.8,27.4,92,94,90,0.455,26.9,28.3,24.8,1.907,0.5,80,28,2.5,-0.00008,-0.00013,41.6,43.0,12,0,0,34.4,6.07,0.01,0.00
15min,AgWx,evansfrm,411,12NOV2017:00:15:00,27.5,12.91,27.6,27.4,27.5,28.8,26.8,93,96,90,0.475,25.8,27.6,24.4,1.162,1.3,132,83,2.9,-0.00006,-0.00008,41.4,43.2,12,0,0,34.6,6.06,0.00,0.00
15min,AgWx,evansfrm,411,12NOV2017:00:30:00,27.2,12.9,27.6,27.5,27.0,27.5,26.1,94,95,94,0.486,25.6,26.4,24.6,0.745,1.2,96,22,3.6,-0.00007,-0.00009,41.2,42.8,12,0,0,34.9,6.07,0.00,0.00
15min,AgWx,evansfrm,411,12NOV2017:00:45:00,26.9,12.9,26.6,26.8,26.6,27.9,25.8,95,96,94,0.469,25.3,26.8,24.4,2.74,1.4,80,18,3.5,-0.00006,-0.00008,41.1,43.0,12,0,0,34.9,6.07,0.00,0.00
15min,AgWx,evansfrm,411,12NOV2017:01:00:00,26.6,12.89,26.6,26.6,26.9,27.3,26.4,95,96,95,0.464,25.7,26.3,25.1,2.039,0.7,69,0.1,3.4,-0.00008,-0.00011,41.0,42.8,12,0,0,34.8,6.07,0.00,0.00
15min,AgWx,evansfrm,411,12NOV2017:01:15:00,26.3,12.84,26.4,26.6,26.5,27.4,25.6,95,96,93,0.465,25.1,26.2,23.9,0,0.6,147,54,2.3,-0.00008,-0.00011,40.8,42.8,12,0,0,34.3,6.07,0.00,0.00
15min,AgWx,evansfrm,411,12NOV2017:01:30:00,25.8,12.87,25.6,25.9,26.0,26.6,25.7,95,96,95,0.457,24.8,25.4,24.6,0,0.1,211,23,1.7,-0.00009,-0.00014,40.7,42.8,12,0,0,35.3,6.07,0.00,0.00
15min,AgWx,evansfrm,411,12NOV2017:01:45:00,25.6,12.82,25.4,25.7,25.9,27.4,24.9,97,98,96,0.459,25.1,26.8,23.9,0,1.2,92,42,3.1,-0.00007,-0.00009,40.5,42.4,12,0,0,34.5,6.07,0.00,0.00
15min,AgWx,evansfrm,411,12NOV2017:02:00:00,25.4,12.86,25.0,24.9,25.7,26.7,24.9,97,98,97,0.442,25.1,26.2,24.1,0,0.3,198,4.2,1.5,-0.00008,-0.00013,40.4,42.3,12,0,0,34.9,6.08,0.01,0.00
15min,AgWx,evansfrm,411,12NOV2017:02:15:00,25.1,12.85,25.0,25.0,24.8,25.2,24.2,98,99,97,0.452,24.3,24.8,23.7,0.745,1.8,104,14,2.9,-0.00006,-0.00008,40.3,42.4,12,0,0,34.8,6.07,0.00,0.00
15min,AgWx,evansfrm,411,12NOV2017:02:30:00,25.1,12.85,27.0,26.7,26.6,27.1,24.9,99,100,98,0.482,26.3,27.0,24.6,1.6,1.4,51,12,3.6,-0.00007,-0.00009,40.1,42.3,12,0,0,35.0,6.07,0.00,0.00
15min,AgWx,evansfrm,411,12NOV2017:02:45:00,25.3,12.84,27.7,27.4,27.5,28.4,26.6,98,99,97,0.490,27.0,28.2,26.0,0,1.2,49,18,3.1,-0.00007,-0.00010,40.1,42.3,12,0,0,34.8,6.07,0.00,0.00
15min,AgWx,evansfrm,411,12NOV2017:03:00:00,25.2,12.8,25.6,25.4,26.4,27.9,25.2,96,98,95,0.447,25.4,27.3,23.9,0,1.4,142,32,3.5,-0.00006,-0.00008,39.9,42.1,12,0,0,34.5,6.07,0.00,0.00
15min,AgWx,evansfrm,411,12NOV2017:03:15:00,25.0,12.82,26.0,26.8,25.6,26.8,24.7,97,99,96,0.489,24.8,26.6,23.8,1.535,1.4,163,15,2.5,-0.00006,-0.00008,39.7,42.1,12,0,0,34.6,6.07,0.00,0.00
15min,AgWx,evansfrm,411,12NOV2017:03:30:00,24.8,12.82,25.2,25.5,26.1,28.4,24.6,97,100,95,0.454,25.4,28.3,23.4,0.943,1.1,104,17,2.1,-0.00007,-0.00009,39.6,42.1,12,0,0,34.7,6.07,0.00,0.00
15min,AgWx,evansfrm,411,12NOV2017:03:45:00,24.6,12.82,25.9,25.6,25.6,26.8,24.8,97,98,96,0.460,25.0,26.3,23.9,1.293,1.1,43,19,2.4,-0.00007,-0.00009,39.5,41.7,12,0,0,34.7,6.08,0.00,0.00
15min,AgWx,evansfrm,411,12NOV2017:04:00:00,24.4,12.8,23.9,23.9,24.8,26.4,23.4,97,98,96,0.424,24.0,26.0,22.4,0.943,0.2,30,38,1.5,-0.00008,-0.00013,39.4,41.7,12,0,0,34.5,6.08,0.00,0.00
15min,AgWx,evansfrm,411,12NOV2017:04:15:00,24.0,12.76,23.3,23.3,23.8,25.0,23.1,97,98,97,0.415,23.1,24.6,22.4,0.438,0.8,143,13,2.4,-0.00007,-0.00010,39.3,41.9,12,0,0,34.9,6.08,0.00,0.00
15min,AgWx,evansfrm,411,12NOV2017:04:30:00,23.7,12.8,24.4,24.5,24.5,25.4,23.4,99,100,98,0.443,24.2,25.2,22.8,0,1.2,190,14,3.9,-0.00007,-0.00009,39.3,41.5,12,0,0,34.8,6.08,0.00,0.00
15min,AgWx,evansfrm,411,12NOV2017:04:45:00,23.5,12.76,23.9,23.7,25.0,26.5,23.7,99,100,98,0.427,24.8,26.5,23.3,0.921,1.0,112,21,2.3,-0.00007,-0.00010,39.2,41.5,12,0,0,34.8,6.08,0.00,0.00
15min,AgWx,evansfrm,411,12NOV2017:05:00:00,23.3,12.78,23.7,24.1,23.9,25.1,23.2,100,100,99,0.441,23.8,25.1,22.9,2.083,1.3,136,28,2.5,-0.00007,-0.00009,39.1,41.5,12,0,0,34.6,6.08,0.00,0.00
15min,AgWx,evansfrm,411,12NOV2017:05:15:00,23.0,12.78,23.5,23.5,23.6,24.3,23.0,100,100,100,0.430,23.6,24.3,22.9,2.74,1.5,165,12,2.8,-0.00006,-0.00008,38.9,41.2,12,0,0,34.7,6.08,0.01,0.00
15min,AgWx,evansfrm,411,12NOV2017:05:30:00,22.8,12.75,24.1,24.3,24.1,24.9,23.0,100,100,100,0.446,24.0,24.9,23.0,0,1.1,178,8.5,3.0,-0.00007,-0.00010,38.9,41.5,12,0,0,35.0,6.08,0.00,0.00
15min,AgWx,evansfrm,411,12NOV2017:05:45:00,23.0,12.78,25.6,25.4,25.2,26.0,24.3,100,100,100,0.465,25.2,26.0,24.3,1.03,1.7,68,7.2,3.0,-0.00006,-0.00008,38.7,41.2,12,0,0,34.4,6.08,0.00,0.00
15min,AgWx,evansfrm,411,12NOV2017:06:00:00,23.0,12.75,24.3,24.1,24.5,25.5,23.9,100,100,100,0.442,24.5,25.5,23.9,1.293,0.7,21,12,3.0,-0.00008,-0.00011,38.6,41.0,12,0,0,34.5,6.08,0.00,0.00
15min,AgWx,evansfrm,411,12NOV2017:06:15:00,22.9,12.77,23.5,23.6,24.1,24.6,23.2,100,100,100,0.432,24.1,24.6,23.2,0.986,0.7,23,21,1.9,-0.00007,-0.00011,38.6,41.0,12,0,0,34.8,6.08,0.00,0.00
15min,AgWx,evansfrm,411,12NOV2017:06:30:00,22.6,12.76,23.3,23.5,22.2,23.5,21.5,100,100,99,0.430,22.2,23.5,21.4,3.113,0.5,139,38,3.5,-0.00007,-0.00011,38.5,41.0,12,0,0,34.5,6.09,0.01,0.00
15min,AgWx,evansfrm,411,12NOV2017:06:45:00,22.4,12.74,23.0,22.7,23.5,24.2,22.7,100,100,100,0.417,23.5,24.2,22.7,3.135,1.7,153,22,3.9,-0.00006,-0.00008,38.4,41.0,12,0,0,34.6,6.08,0.00,0.00
15min,AgWx,evansfrm,411,12NOV2017:07:00:00,22.6,12.77,24.3,24.1,24.6,25.7,22.6,100,100,100,0.441,24.6,25.7,22.6,0,3.0,123,12,4.4,-0.00005,-0.00006,38.4,41.0,12,0,0,35.1,6.08,0.00,0.00
15min,AgWx,evansfrm,411,12NOV2017:07:15:00,22.5,12.74,24.0,24.3,24.3,25.0,23.7,100,100,100,0.446,24.3,25.0,23.7,0.46,0.3,260,20,1.7,-0.00008,-0.00012,38.3,40.6,12,3,0,34.5,6.08,0.00,0.00
15min,AgWx,evansfrm,411,12NOV2017:07:30:00,22.3,12.78,22.6,22.9,22.8,24.4,21.7,99,100,98,0.420,22.6,24.4,21.3,0,0.0,182,0.0,0.3,-0.00014,-0.00015,38.2,40.6,12,7,0,34.6,6.08,0.00,0.00
15min,AgWx,evansfrm,411,12NOV2017:07:45:00,22.2,12.79,24.7,24.9,25.1,26.0,22.7,100,100,100,0.456,25.1,26.0,22.7,0,0.0,179,0.0,0.4,-0.00003,-0.00004,38.0,40.8,12,11,0,34.8,6.08,0.00,0.00
15min,AgWx,evansfrm,411,12NOV2017:08:00:00,22.1,12.79,23.6,23.8,23.9,25.1,23.3,99,100,98,0.434,23.8,25.1,22.9,1.885,0.2,192,2.1,1.9,0.00005,0.00006,38.1,40.5,12,14,0,34.4,6.08,0.00,0.00
15min,AgWx,evansfrm,411,12NOV2017:08:15:00,22.4,13.23,25.4,25.6,24.1,25.6,23.6,100,100,100,0.470,24.1,25.6,23.5,1.425,2.0,162,24,3.0,0.00005,0.00006,38.0,40.6,12,46,0,36.3,6.04,0.00,0.00
15min,AgWx,evansfrm,411,12NOV2017:08:30:00,25.3,14.12,29.0,28.4,27.3,28.4,25.7,100,100,100,0.527,27.3,28.4,25.7,1.25,1.0,174,31,2.1,0.00016,0.00017,37.9,40.6,12,137,0,47.0,6.02,0.00,0.00
15min,AgWx,evansfrm,411,12NOV2017:08:45:00,28.8,14.9,30.2,29.6,29.0,29.8,28.4,99,100,98,0.544,28.8,29.3,28.4,1.863,1.4,210,11,2.2,0.00029,0.00031,37.8,40.3,12,169,0,52.6,6.03,0.01,0.00
15min,AgWx,evansfrm,411,12NOV2017:09:00:00,31.7,14.93,33.4,32.1,30.8,32.4,29.5,97,98,94,0.574,30.0,31.5,28.9,0,0.3,209,0.4,1.9,0.00050,0.00053,37.8,40.5,12,214,0,61.0,6.04,0.00,0.00
15min,AgWx,evansfrm,411,12NOV2017:09:15:00,34.4,14.89,34.5,33.3,32.7,35.0,31.5,91,94,87,0.560,30.4,32.6,29.4,0,0.0,292,0.0,0.8,0.00087,0.00093,37.7,40.3,12,294,0,72.2,6.04,0.01,0.00
15min,AgWx,evansfrm,411,12NOV2017:09:30:00,37.4,14.84,36.7,35.4,34.3,35.4,32.6,85,88,82,0.578,30.3,31.7,28.8,0,0.3,106,46,1.6,0.00102,0.00109,37.5,40.3,12,322,0,73.9,6.05,0.00,0.00
15min,AgWx,evansfrm,411,12NOV2017:09:45:00,40.7,14.81,37.6,36.6,35.9,36.7,35.2,80,83,78,0.593,30.3,31.8,29.3,0,0.3,170,38,1.7,0.00117,0.00126,37.5,40.1,12,349,0,76.5,6.05,0.00,0.00
15min,AgWx,evansfrm,411,12NOV2017:10:00:00,43.6,14.75,37.6,35.0,35.5,36.8,34.9,80,81,78,0.555,29.9,31.3,29.2,0,0.9,342,25,2.9,0.00126,0.00137,37.5,40.1,12,373,0,79.5,6.06,0.01,0.00
15min,AgWx,evansfrm,411,12NOV2017:10:15:00,46.3,14.69,38.5,35.7,35.8,36.9,35.0,80,82,79,0.569,30.4,31.7,29.5,0,1.0,321,27,3.1,0.00136,0.00147,37.5,40.1,12,394,0,80.4,6.06,0.00,0.00
15min,AgWx,evansfrm,411,12NOV2017:10:30:00,48.8,14.67,39.3,37.1,36.6,37.3,35.9,78,81,77,0.582,30.5,31.6,29.9,0,1.3,320,25,3.2,0.00149,0.00162,37.4,40.1,12,418,0,83.7,6.06,0.00,0.00
15min,AgWx,evansfrm,411,12NOV2017:10:45:00,51.0,14.63,40.6,37.7,37.7,38.4,36.7,75,78,72,0.552,30.5,31.3,29.5,1.644,1.7,319,57,4.5,0.00161,0.00177,37.3,40.1,12,441,0,85.0,6.06,0.00,0.00
15min,AgWx,evansfrm,411,12NOV2017:11:00:00,52.7,14.57,40.8,40.0,38.7,40.0,37.7,68,73,64,0.533,29.0,30.3,27.9,1.425,1.9,353,39,5.4,0.00174,0.00194,37.3,39.7,12,460,0,87.4,6.06,0.00,0.00
15min,AgWx,evansfrm,411,12NOV2017:11:15:00,54.5,14.59,43.2,40.7,40.3,40.9,39.9,67,69,64,0.571,30.2,31.2,28.6,4.143,2.0,325,45,4.2,0.00187,0.00208,37.3,39.9,12,475,0,89.2,6.06,0.00,0.00
15min,AgWx,evansfrm,411,12NOV2017:11:30:00,55.9,14.53,44.0,41.4,41.1,41.6,40.5,66,68,64,0.575,30.5,31.6,29.7,1.096,2.4,311,51,4.8,0.00195,0.00219,37.4,40.1,12,488,0,88.2,6.07,0.00,0.00
15min,AgWx,evansfrm,411,12NOV2017:11:45:00,57.0,14.54,44.1,41.8,41.9,42.7,41.3,65,67,64,0.582,31.1,32.2,30.4,2.631,2.6,322,34,5.1,0.00202,0.00228,37.5,39.9,12,495,0,88.7,6.07,0.00,0.00
15min,AgWx,evansfrm,411,12NOV2017:12:00:00,58.0,14.49,44.6,43.6,43.1,44.5,41.7,64,67,61,0.595,31.7,32.9,30.7,1.841,2.7,341,48,5.6,0.00210,0.00237,37.6,39.7,12,502,0,90.9,6.07,0.00,0.00
15min,AgWx,evansfrm,411,12NOV2017:12:15:00,58.7,14.5,45.6,43.8,44.0,44.7,43.5,62,63,60,0.593,31.8,32.6,30.9,0.986,3.2,320,25,5.5,0.00216,0.00247,37.8,39.4,12,504,0,87.2,6.07,0.00,0.00
15min,AgWx,evansfrm,411,12NOV2017:12:30:00,59.4,14.45,46.5,45.1,44.7,45.7,43.7,60,62,58,0.606,31.7,32.9,30.5,2.061,2.4,321,40,4.6,0.00219,0.00247,38.0,39.4,12,504,0,91.7,6.07,0.00,0.00
15min,AgWx,evansfrm,411,12NOV2017:12:45:00,59.9,14.45,46.5,45.8,45.4,46.5,44.3,59,60,56,0.600,31.7,33.0,30.8,0.921,3.3,339,30,6.3,0.00220,0.00255,38.3,40.3,12,500,0,89.7,6.07,0.00,0.00
15min,AgWx,evansfrm,411,12NOV2017:13:00:00,60.6,14.42,48.7,47.8,46.4,48.2,45.4,56,58,54,0.608,31.6,33.1,30.6,2.477,2.1,306,54,5.6,0.00220,0.00249,38.7,39.7,12,492,0,93.0,6.07,0.00,0.00
15min,AgWx,evansfrm,411,12NOV2017:13:15:00,61.4,14.4,50.0,48.2,47.6,48.3,47.0,54,57,52,0.592,31.6,33.0,30.7,2.762,2.1,309,54,4.0,0.00219,0.00249,39.1,39.7,12,481,0,95.0,6.07,0.00,0.00
15min,AgWx,evansfrm,411,12NOV2017:13:30:00,62.4,14.38,50.6,48.0,48.9,50.0,47.8,51,53,49,0.586,31.4,32.8,30.4,2.17,1.7,257,56,4.5,0.00216,0.00244,39.5,40.1,12,467,0,95.1,6.07,0.00,0.00
15min,AgWx,evansfrm,411,12NOV2017:13:45:00,63.0,14.37,51.1,49.4,48.8,49.8,47.7,51,53,48,0.581,31.3,32.7,30.6,2.411,2.0,278,36,5.1,0.00207,0.00236,40.0,39.9,12,449,0,92.9,6.07,0.00,0.00
15min,AgWx,evansfrm,411,12NOV2017:14:00:00,63.5,14.34,51.5,50.5,49.5,50.5,48.9,49,52,48,0.600,31.3,32.6,30.5,0,1.6,346,56,4.0,0.00196,0.00223,40.3,39.7,12,427,0,94.2,6.08,0.01,0.00
15min,AgWx,evansfrm,411,12NOV2017:14:15:00,64.0,14.34,53.5,51.2,50.4,51.6,49.3,48,50,46,0.601,31.4,33.6,30.4,0.504,2.0,303,29,5.0,0.00186,0.00216,40.8,40.1,12,399,0,91.2,6.07,0.00,0.00
15min,AgWx,evansfrm,411,12NOV2017:14:30:00,64.5,14.31,51.9,50.9,50.9,51.6,50.2,47,50,45,0.595,31.3,33.2,30.5,1.228,1.8,341,45,4.1,0.00173,0.00201,41.2,40.6,12,377,0,91.9,6.07,0.00,0.00
15min,AgWx,evansfrm,411,12NOV2017:14:45:00,64.9,14.32,52.4,51.8,51.5,52.0,51.0,46,48,45,0.600,31.2,32.9,30.6,3.529,2.2,296,81,4.9,0.00162,0.00193,41.6,40.3,12,349,0,87.1,6.07,0.00,0.00
15min,AgWx,evansfrm,411,12NOV2017:15:00:00,64.6,14.3,53.8,52.5,51.9,52.8,51.3,45,47,44,0.596,31.3,32.4,30.6,1.491,1.9,291,57,4.3,0.00142,0.00170,42.0,40.6,12,314,0,83.7,6.07,0.00,0.00
15min,AgWx,evansfrm,411,12NOV2017:15:15:00,64.6,14.29,54.5,52.5,53.4,54.3,52.3,43,46,42,0.603,31.7,33.9,30.6,0.417,0.9,345,39,2.9,0.00114,0.00131,42.4,41.0,12,280,0,86.9,6.07,0.00,0.00
15min,AgWx,evansfrm,411,12NOV2017:15:30:00,64.8,14.29,55.0,52.9,53.7,55.1,52.5,43,46,41,0.602,31.7,32.4,31.2,0.351,0.8,315,25,3.1,0.00094,0.00110,42.6,41.2,12,248,0,84.6,6.07,0.00,0.00
15min,AgWx,evansfrm,411,12NOV2017:15:45:00,64.4,14.29,53.9,52.2,52.6,53.2,52.1,45,46,44,0.592,31.7,33.0,31.1,3.814,2.3,314,26,4.3,0.00082,0.00109,42.9,41.4,12,201,0,75.4,6.06,0.00,0.00
15min,AgWx,evansfrm,411,12NOV2017:16:00:00,63.2,14.29,53.8,52.5,52.3,52.6,52.0,45,47,43,0.592,31.4,33.0,30.7,1.008,1.9,286,30,3.9,0.00053,0.00075,43.2,41.5,12,133,0,66.6,6.06,0.00,0.00
15min,AgWx,evansfrm,411,12NOV2017:16:15:00,61.9,14.34,54.0,52.7,52.7,53.1,52.3,44,46,43,0.592,31.6,32.7,31.0,2.653,1.8,270,12,3.4,0.00042,0.00063,43.6,41.7,12,140,0,66.2,6.05,0.00,0.00
15min,AgWx,evansfrm,411,12NOV2017:16:30:00,60.6,14.35,53.2,52.2,52.4,53.1,51.9,43,44,42,0.584,30.8,31.8,29.9,2.543,1.9,270,12,4.0,0.00024,0.00045,43.7,41.7,12,105,0,63.7,6.05,0.00,0.00
15min,AgWx,evansfrm,411,12NOV2017:16:45:00,58.8,13.52,49.5,49.1,50.6,52.2,49.1,47,50,44,0.593,31.2,31.6,30.8,1.82,2.1,265,9.2,3.3,-0.00008,0.00011,43.9,42.1,12,44,0,54.0,6.05,0.00,0.00
15min,AgWx,evansfrm,411,12NOV2017:17:00:00,56.2,13.3,46.3,46.4,48.0,49.1,46.4,53,56,50,0.603,31.6,31.9,31.0,0,1.1,256,16,1.9,-0.00006,0.00003,44.2,42.1,12,11,0,44.8,6.05,0.00,0.00
15min,AgWx,evansfrm,411,12NOV2017:17:15:00,53.2,13.21,42.8,43.6,44.7,46.4,41.9,58,64,55,0.600,30.8,31.7,29.9,2.784,1.4,96,2.7,2.9,-0.00013,-0.00016,44.2,42.3,12,5,0,42.7,6.05,0.00,0.00
15min,AgWx,evansfrm,411,12NOV2017:17:30:00,50.4,13.13,40.4,40.2,43.1,46.7,39.9,60,68,54,0.567,30.3,31.6,29.1,1.754,1.8,114,8.8,3.3,-0.00010,-0.00011,44.4,42.4,12,1,0,41.4,6.05,0.00,0.00
15min,AgWx,evansfrm,411,12NOV2017:17:45:00,47.8,13.15,38.9,39.3,39.2,40.2,38.8,70,73,67,0.592,30.3,31.2,29.4,3.332,1.8,130,29,3.9,-0.00012,-0.00015,44.4,42.8,12,0,0,38.2,6.05,0.00,0.00
15min,AgWx,evansfrm,411,12NOV2017:18:00:00,46.0,13.13,40.9,40.9,40.7,42.2,39.1,72,75,70,0.620,32.4,33.4,31.3,2.324,3.3,160,32,4.7,-0.00005,-0.00005,44.3,42.6,12,0,0,40.9,6.04,0.00,0.00
15min,AgWx,evansfrm,411,12NOV2017:18:15:00,44.7,13.12,40.1,39.8,40.7,41.2,39.8,71,72,71,0.601,32.2,32.7,31.6,3.069,2.2,181,23,3.3,-0.00010,-0.00012,44.2,43.0,12,0,0,39.5,6.05,0.00,0.00
15min,AgWx,evansfrm,411,12NOV2017:18:30:00,43.6,13.11,40.8,40.8,40.6,41.1,39.8,72,73,71,0.614,32.2,32.6,31.7,3.179,4.0,131,6.2,5.5,-0.00002,-0.00000,44.3,42.8,12,0,0,40.0,6.04,0.00,0.00
15min,AgWx,evansfrm,411,12NOV2017:18:45:00,42.5,13.1,39.9,40.1,40.0,40.7,39.2,72,73,71,0.615,31.8,32.2,31.1,2.981,2.1,153,12,3.0,-0.00011,-0.00013,44.2,43.0,12,0,0,38.6,6.05,0.01,0.00
15min,AgWx,evansfrm,411,12NOV2017:19:00:00,41.4,13.09,36.7,37.1,37.8,40.3,36.9,75,77,71,0.578,30.5,32.3,30.0,0,1.4,132,3.9,3.7,-0.00015,-0.00020,44.1,43.0,12,0,0,37.7,6.05,0.00,0.00
15min,AgWx,evansfrm,411,12NOV2017:19:15:00,40.5,13.08,38.1,38.4,37.7,38.4,37.0,78,79,77,0.610,31.5,32.1,30.6,0.482,0.0,48,0.5,0.5,-0.00027,-0.00043,44.0,43.2,12,0,0,35.7,6.05,0.00,0.00
15min,AgWx,evansfrm,411,12NOV2017:19:30:00,39.9,13.07,39.7,39.0,38.9,39.4,38.4,76,78,74,0.603,31.9,32.3,31.3,3.486,2.0,29,14,3.7,-0.00013,-0.00016,43.9,43.2,12,0,0,36.1,6.05,0.00,0.00
15min,AgWx,evansfrm,411,12NOV2017:19:45:00,39.5,13.07,40.3,39.9,40.1,40.8,39.1,71,75,68,0.571,31.3,31.8,30.3,0,2.0,47,5.7,4.2,-0.00011,-0.00013,43.8,43.3,12,0,0,37.8,6.05,0.00,0.00
15min,AgWx,evansfrm,411,12NOV2017:20:00:00,39.0,13.06,37.8,37.9,38.9,40.0,37.9,71,74,68,0.571,30.1,30.5,29.7,1.513,1.0,325,16,2.5,-0.00018,-0.00026,43.7,43.2,12,0,0,35.7,6.05,0.00,0.00
15min,AgWx,evansfrm,411,12NOV2017:20:15:00,38.4,13.04,36.3,36.3,37.2,37.9,36.3,77,80,74,0.580,30.7,31.2,30.3,0,1.6,340,27,2.6,-0.00014,-0.00018,43.7,43.3,12,0,0,35.0,6.05,0.00,0.00
15min,AgWx,evansfrm,411,12NOV2017:20:30:00,37.7,13.05,34.2,33.8,35.1,36.3,33.8,83,85,80,0.552,30.5,31.1,29.5,3.661,3.2,116,15,5.0,-0.00009,-0.00010,43.5,43.3,12,0,0,34.8,6.05,0.00,0.00
15min,AgWx,evansfrm,411,12NOV2017:20:45:00,37.0,13.04,34.9,35.2,35.9,37.5,33.9,82,87,78,0.566,30.8,32.5,28.6,3.836,3.4,129,10,5.0,-0.00008,-0.00008,43.4,43.3,12,0,0,36.4,6.05,0.00,0.00
15min,AgWx,evansfrm,411,12NOV2017:21:00:00,36.2,13.01,33.7,33.8,34.6,36.3,33.4,81,83,78,0.545,29.2,31.2,28.4,0,0.9,131,18,3.7,-0.00018,-0.00026,43.2,43.3,12,0,0,34.7,6.06,0.01,0.00
15min,AgWx,evansfrm,411,12NOV2017:21:15:00,35.3,13.01,33.0,33.2,33.5,34.3,32.7,83,85,82,0.544,28.8,29.7,28.1,0,0.2,125,21,2.0,-0.00023,-0.00035,43.0,43.3,12,0,0,34.8,6.06,0.00,0.00
15min,AgWx,evansfrm,411,12NOV2017:21:30:00,34.6,13,32.8,33.1,32.5,33.5,31.8,86,87,84,0.549,28.7,30.1,27.7,3.069,0.4,69,7.6,3.1,-0.00021,-0.00032,43.0,43.3,12,0,0,34.6,6.06,0.00,0.00
15min,AgWx,evansfrm,411,12NOV2017:21:45:00,34.3,13,33.5,33.5,33.7,34.7,33.1,86,87,84,0.562,29.9,31.0,29.3,1.403,2.3,10,51,3.9,-0.00012,-0.00015,42.8,43.3,12,0,0,34.4,6.05,0.00,0.00
15min,AgWx,evansfrm,411,12NOV2017:22:00:00,34.0,13,33.3,33.2,33.8,34.4,33.2,87,88,86,0.554,30.3,31.1,29.6,0.658,1.6,347,24,3.4,-0.00015,-0.00020,42.6,43.3,12,0,0,34.6,6.06,0.00,0.00
15min,AgWx,evansfrm,411,12NOV2017:22:15:00,33.6,12.98,32.8,33.1,33.3,34.4,31.7,86,88,84,0.560,29.4,30.7,27.5,1.951,0.8,97,60,2.2,-0.00019,-0.00027,42.6,43.0,12,0,0,34.8,6.05,0.00,0.00
15min,AgWx,evansfrm,411,12NOV2017:22:30:00,33.1,12.98,31.7,32.0,32.3,33.4,31.2,87,90,86,0.549,29.0,30.2,27.9,3.858,2.9,150,7.4,4.4,-0.00010,-0.00012,42.4,43.2,12,0,0,34.5,6.06,0.00,0.00
15min,AgWx,evansfrm,411,12NOV2017:22:45:00,32.8,12.98,31.2,31.1,32.7,35.3,30.8,87,92,82,0.505,29.3,32.6,26.5,2.236,3.5,128,14,4.9,-0.00009,-0.00010,42.2,43.0,12,0,0,34.8,6.06,0.00,0.00
15min,AgWx,evansfrm,411,12NOV2017:23:00:00,32.4,12.97,31.5,31.5,31.7,32.2,30.9,87,88,86,0.522,28.4,29.1,27.2,1.578,1.7,62,25,4.3,-0.00014,-0.00018,42.1,43.0,12,0,0,34.5,6.06,0.00,0.00
15min,AgWx,evansfrm,411,12NOV2017:23:15:00,32.0,12.95,30.1,29.8,31.6,32.3,29.8,89,90,87,0.503,28.7,29.5,27.2,1.688,2.5,343,49,4.8,-0.00012,-0.00014,42.0,43.2,12,0,0,34.4,6.06,0.00,0.00
15min,AgWx,evansfrm,411,12NOV2017:23:30:00,31.8,12.96,33.2,32.8,31.7,33.6,29.5,92,93,89,0.560,29.6,31.5,27.0,1.929,1.4,353,36,4.2,-0.00016,-0.00022,41.9,42.8,12,0,0,35.0,6.06,0.00,0.00
15min,AgWx,evansfrm,411,12NOV2017:23:45:00,31.5,12.95,31.2,31.1,32.1,32.8,30.9,88,89,87,0.521,29.0,29.8,27.8,0.767,1.7,28,60,3.4,-0.00014,-0.00019,41.7,42.8,12,0,0,34.2,6.06,0.01,0.00
15min,AgWx,drainfrm,410,12NOV2017:00:00:00,27.1,12.58,28.8,29.4,28.7,29.4,27.4,95,96,94,0.515,27.5,28.2,26.0,2.762,2.1,58,26,3.4,-0.00003,-0.00003,41.3,43.0,15,0,100,30.3,11.62,0.00,0.00
15min,AgWx,drainfrm,410,12NOV2017:00:15:00,27.1,12.57,27.7,28.1,29.2,30.5,28.0,93,94,87,0.487,27.3,28.6,24.8,2.916,3.1,276,82,5.2,-0.00001,-0.00001,41.2,43.2,15,0,100,30.9,11.62,0.00,0.00
15min,AgWx,drainfrm,410,12NOV2017:00:30:00,26.7,12.59,27.1,27.8,27.5,28.1,27.0,95,97,94,0.497,26.2,27.0,25.6,0.899,1.9,263,18,3.6,-0.00003,-0.00003,41.1,43.0,14,0,100,29.4,11.63,0.00,0.00
15min,AgWx,drainfrm,410,12NOV2017:00:45:00,26.3,12.58,27.5,28.2,28.0,28.3,27.8,98,98,97,0.511,27.4,27.7,27.0,1.25,1.1,329,25,1.9,-0.00004,-0.00005,41.1,43.0,15,0,100,29.8,11.63,0.00,0.00
15min,AgWx,drainfrm,410,12NOV2017:01:00:00,25.9,12.58,26.6,27.2,27.6,28.3,27.2,98,98,97,0.491,27.0,27.8,26.6,2.477,1.6,329,5.6,2.6,-0.00003,-0.00004,41.1,43.0,15,0,100,29.6,11.62,0.00,0.00
15min,AgWx,drainfrm,410,12NOV2017:01:15:00,25.7,12.57,26.6,27.3,27.0,27.3,26.4,98,98,97,0.495,26.5,26.9,25.8,2.214,2.0,6.2,17,3.0,-0.00003,-0.00004,40.9,43.0,15,0,100,29.1,11.62,0.00,0.00
15min,AgWx,drainfrm,410,12NOV2017:01:30:00,25.4,12.57,25.6,26.4,26.7,27.5,26.3,98,98,98,0.474,26.2,27.0,25.7,0.811,0.9,94,50,2.8,-0.00004,-0.00006,40.9,42.8,14,0,100,28.4,11.62,0.00,0.00
15min,AgWx,drainfrm,410,12NOV2017:01:45:00,25.0,12.57,25.7,26.6,26.4,26.6,26.2,98,99,98,0.483,25.9,26.2,25.7,0,0.3,126,21,2.6,-0.00005,-0.00007,40.9,42.8,14,0,100,27.9,11.63,0.00,0.00
15min,AgWx,drainfrm,410,12NOV2017:02:00:00,24.8,12.57,25.4,26.1,26.9,27.2,26.1,99,99,99,0.474,26.6,27.0,25.8,0,1.4,5.0,9.7,2.2,-0.00004,-0.00005,40.8,42.8,15,0,100,28.9,11.62,0.00,0.00
15min,AgWx,drainfrm,410,12NOV2017:02:15:00,24.6,12.55,25.1,25.6,26.4,26.8,25.6,99,99,98,0.460,26.0,26.5,25.1,2.916,1.9,8.9,12,3.2,-0.00003,-0.00004,40.7,43.0,15,0,100,28.6,11.62,0.00,0.00
15min,AgWx,drainfrm,410,12NOV2017:02:30:00,24.4,12.55,24.2,24.9,25.1,25.5,24.8,98,98,98,0.447,24.5,25.0,24.2,0,0.8,54,57,2.8,-0.00004,-0.00006,40.5,42.8,15,0,100,27.4,11.62,0.00,0.00
15min,AgWx,drainfrm,410,12NOV2017:02:45:00,24.0,12.55,23.2,23.7,24.9,25.7,23.7,98,98,98,0.424,24.5,25.3,23.2,3.201,1.4,229,46,3.8,-0.00003,-0.00005,40.6,42.8,14,0,100,27.0,11.63,0.00,0.00
15min,AgWx,drainfrm,410,12NOV2017:03:00:00,23.6,12.54,24.5,25.2,24.9,25.5,23.7,99,99,98,0.457,24.5,25.3,23.1,2.258,2.4,262,10,3.6,-0.00003,-0.00003,40.4,42.8,14,0,100,27.2,11.63,0.00,0.00
15min,AgWx,drainfrm,410,12NOV2017:03:15:00,23.5,12.54,26.3,26.7,26.1,27.6,24.6,100,100,99,0.491,26.0,27.5,24.4,2.653,2.8,300,11,3.6,-0.00003,-0.00004,40.3,42.8,15,0,100,28.5,11.63,0.00,0.00
15min,AgWx,drainfrm,410,12NOV2017:03:30:00,23.5,12.54,25.0,25.6,26.3,27.2,25.5,100,100,99,0.468,26.2,27.1,25.4,1.798,1.6,323,69,2.9,-0.00004,-0.00005,40.3,42.8,15,0,100,28.5,11.63,0.00,0.00
15min,AgWx,drainfrm,410,12NOV2017:03:45:00,23.6,12.53,24.6,25.3,26.1,26.8,25.3,100,100,100,0.463,26.0,26.7,25.2,1.907,1.4,130,31,2.3,-0.00004,-0.00005,40.2,42.6,14,0,100,27.4,11.63,0.00,0.00
15min,AgWx,drainfrm,410,12NOV2017:04:00:00,23.4,12.53,23.9,24.7,24.7,25.2,24.3,99,100,99,0.450,24.5,25.1,24.1,1.381,1.5,49,31,3.0,-0.00004,-0.00005,40.1,42.4,14,0,100,26.8,11.63,0.00,0.00
15min,AgWx,drainfrm,410,12NOV2017:04:15:00,23.1,12.52,23.9,24.6,24.7,25.3,23.9,99,100,99,0.448,24.6,25.2,23.6,1.162,1.6,13,17,2.5,-0.00003,-0.00005,40.1,42.4,14,0,100,27.1,11.62,0.00,0.00
15min,AgWx,drainfrm,410,12NOV2017:04:30:00,22.9,12.52,23.6,24.2,24.4,24.8,23.8,99,100,99,0.441,24.2,24.7,23.6,0,0.7,142,43,2.8,-0.00004,-0.00006,40.0,42.4,15,0,100,26.2,11.62,0.00,0.00
15min,AgWx,drainfrm,410,12NOV2017:04:45:00,22.5,12.52,22.5,22.9,23.9,24.5,22.7,99,100,99,0.416,23.7,24.3,22.5,1.885,0.8,263,15,3.1,-0.00004,-0.00006,40.0,42.6,14,0,100,26.0,11.63,0.00,0.00
15min,AgWx,drainfrm,410,12NOV2017:05:00:00,22.0,12.51,23.4,23.9,24.0,24.4,23.0,100,100,99,0.437,23.9,24.3,22.7,1.535,0.3,232,2.0,1.6,-0.00005,-0.00007,39.9,42.6,15,0,100,25.5,11.63,0.00,0.00
15min,AgWx,drainfrm,410,12NOV2017:05:15:00,21.7,12.51,24.4,24.8,24.4,24.8,23.8,100,100,100,0.453,24.3,24.7,23.7,1.754,1.1,238,6.9,2.0,-0.00004,-0.00005,39.9,42.6,15,0,100,25.6,11.63,0.00,0.00
15min,AgWx,drainfrm,410,12NOV2017:05:30:00,21.8,12.5,24.4,25.0,24.6,25.0,23.6,100,100,100,0.457,24.5,24.9,23.6,1.184,1.8,239,60,4.3,-0.00003,-0.00004,39.7,42.8,15,0,100,26.3,11.63,0.00,0.00
15min,AgWx,drainfrm,410,12NOV2017:05:45:00,22.0,12.5,23.9,24.1,25.0,25.7,24.0,100,100,100,0.441,24.9,25.7,23.9,2.368,2.2,155,38,5.7,-0.00003,-0.00004,39.6,42.4,14,0,100,26.6,11.63,0.00,0.00
15min,AgWx,drainfrm,410,12NOV2017:06:00:00,22.2,12.5,24.0,24.5,24.3,24.8,23.8,100,100,100,0.447,24.2,24.7,23.7,0.241,2.0,190,70,4.2,-0.00003,-0.00004,39.7,42.4,15,0,100,26.1,11.63,0.00,0.00
15min,AgWx,drainfrm,410,12NOV2017:06:15:00,22.2,12.49,24.4,25.1,24.8,25.1,24.4,100,100,100,0.458,24.7,25.0,24.4,0,0.3,52,5.5,2.4,-0.00005,-0.00007,39.6,42.3,15,0,100,26.6,11.62,0.00,0.00
15min,AgWx,drainfrm,410,12NOV2017:06:30:00,22.1,12.49,23.6,24.0,24.7,25.5,24.0,100,100,99,0.437,24.6,25.5,23.8,1.425,1.1,53,38,2.9,-0.00004,-0.00005,39.5,42.4,15,0,100,26.6,11.62,0.00,0.00
15min,AgWx,drainfrm,410,12NOV2017:06:45:00,22.0,12.47,22.4,23.0,23.6,24.0,22.9,99,99,99,0.417,23.4,23.8,22.7,2.148,2.5,27,14,3.7,-0.00003,-0.00003,39.5,42.4,14,0,100,25.8,11.62,0.00,0.00
15min,AgWx,drainfrm,410,12NOV2017:07:00:00,21.8,12.48,21.9,22.4,22.6,22.9,22.3,99,99,98,0.405,22.3,22.7,21.9,2.85,2.5,44,12,3.7,-0.00003,-0.00003,39.4,42.4,15,0,100,24.7,11.62,0.00,0.00
15min,AgWx,drainfrm,410,12NOV2017:07:15:00,21.5,12.48,21.1,21.7,22.3,23.0,21.7,99,99,98,0.392,22.0,22.8,21.3,1.162,1.8,359,36,2.8,-0.00003,-0.00003,39.3,42.3,14,3,100,24.9,11.62,0.00,0.00
15min,AgWx,drainfrm,410,12NOV2017:07:30:00,21.1,12.47,21.6,22.1,21.4,22.2,20.6,98,99,98,0.402,21.0,22.0,20.0,1.885,1.8,269,14,3.6,-0.00013,-0.00014,39.2,41.9,15,7,100,24.2,11.62,0.00,0.00
15min,AgWx,drainfrm,410,12NOV2017:07:45:00,20.8,12.46,22.8,23.3,22.6,23.3,21.9,99,99,99,0.423,22.4,23.1,21.7,1.798,1.0,23,36,2.1,-0.00004,-0.00005,39.1,41.9,15,12,100,25.6,11.63,0.00,0.00